{"data":{"norad_id":65067,"epoch":"2026-09-20T03:38:22.554816Z","epoch_age_seconds":150275,"freshness":"FRESH","line1":"1 65067U 25165M   26263.15164994  .00013750  00000+0  42740-3 0  9996","line2":"2 65067  97.2844 334.3990 0001422  88.5975 271.5430 15.33450040 64076","mean_motion":15.3345004,"eccentricity":0.0001422,"inclination_deg":97.2844,"raan_deg":334.399,"arg_perigee_deg":88.5975,"mean_anomaly_deg":271.543,"bstar":0.0004274,"rev_number":6407,"period_min":93.905896014715,"perigee_km":464.55500983669,"apogee_km":466.5013482136,"semimajor_km":6843.6651790251,"source":"CELESTRAK","updated_at":"2026-09-21T09:00:35.500132Z"}}